TimeAKST,TemperatureF,Dew PointF,Humidity,Sea Level PressureIn,VisibilityMPH,Wind Direction,Wind SpeedMPH,Gust SpeedMPH,PrecipitationIn,Events,Conditions,WindDirDegrees,DateUTC
12:53 AM,10.9,7.0,84,30.14,1.8,North,5.8,-,N/A,Snow,Light Snow,360,2013-01-21 09:53:00
1:22 AM,10.0,6.1,84,30.10,2.5,North,4.6,-,N/A,Snow,Light Snow,360,2013-01-21 10:22:00
1:53 AM,10.9,6.1,81,30.15,5.0,North,5.8,-,N/A,Snow,Light Snow,10,2013-01-21 10:53:00
3:53 AM,10.9,6.1,81,30.16,9.0,North,5.8,-,N/A,Snow,Light Snow,360,2013-01-21 12:53:00
4:53 AM,10.9,5.0,77,30.17,10.0,North,5.8,-,N/A,,Overcast,360,2013-01-21 13:53:00
5:53 AM,10.0,5.0,80,30.17,10.0,North,6.9,-,N/A,,Overcast,350,2013-01-21 14:53:00
6:53 AM,10.0,3.9,76,30.17,10.0,North,8.1,-,N/A,,Overcast,360,2013-01-21 15:53:00
7:53 AM,10.0,3.9,76,30.17,10.0,North,5.8,-,N/A,,Overcast,10,2013-01-21 16:53:00
8:53 AM,10.0,3.9,76,30.18,10.0,North,6.9,-,N/A,,Mostly Cloudy,10,2013-01-21 17:53:00
9:53 AM,9.0,3.0,77,30.18,10.0,North,9.2,-,N/A,,Mostly Cloudy,360,2013-01-21 18:53:00
10:53 AM,9.0,3.0,77,30.18,10.0,North,6.9,-,N/A,,Mostly Cloudy,360,2013-01-21 19:53:00
11:53 AM,9.0,1.9,73,30.18,10.0,North,5.8,-,N/A,,Mostly Cloudy,360,2013-01-21 20:53:00
12:53 PM,9.0,1.0,70,30.18,10.0,North,9.2,-,N/A,,Mostly Cloudy,360,2013-01-21 21:53:00
1:53 PM,9.0,1.0,70,30.18,10.0,North,10.4,-,N/A,,Mostly Cloudy,360,2013-01-21 22:53:00
2:53 PM,9.0,1.0,70,30.16,10.0,North,9.2,-,N/A,,Mostly Cloudy,360,2013-01-21 23:53:00
3:53 PM,10.0,1.9,70,30.14,10.0,North,6.9,-,N/A,,Mostly Cloudy,360,2013-01-22 00:53:00
4:53 PM,6.1,-0.0,76,30.14,10.0,North,6.9,-,N/A,,Mostly Cloudy,10,2013-01-22 01:53:00
5:53 PM,-2.9,-7.1,82,30.13,10.0,NNE,6.9,-,N/A,,Partly Cloudy,30,2013-01-22 02:53:00
6:53 PM,-0.9,-4.0,87,30.12,10.0,NNE,6.9,-,N/A,,Partly Cloudy,30,2013-01-22 03:53:00
7:53 PM,-5.1,-9.0,83,30.12,10.0,NNE,5.8,-,N/A,,Partly Cloudy,20,2013-01-22 04:53:00
8:53 PM,-6.0,-9.9,83,30.11,10.0,North,5.8,-,N/A,,Partly Cloudy,10,2013-01-22 05:53:00
9:53 PM,-8.0,-11.9,83,30.10,10.0,NNE,6.9,-,N/A,,Partly Cloudy,30,2013-01-22 06:53:00
10:53 PM,-7.1,-11.0,83,30.09,10.0,NNE,6.9,-,N/A,,Clear,20,2013-01-22 07:53:00
11:53 PM,-6.0,-9.9,83,30.07,10.0,NNE,9.2,-,N/A,,Clear,20,2013-01-22 08:53:00